Retour au catalogue

BREEZE-M DEB

LostHEO
NORAD 38637·DEBRIS·🇷🇺 Russia

Lancé Mar 14, 2008 depuis Baikonur Cosmodrome

Loading…

Prochains Passages (prochaines 24 heures)

TLE

PériméSource: Space-Track

Époque: Oct 2, 2016, 20:43 UTC

1 38637U 08011CL  16276.86353254 -.00000006 +00000-0 +11785-2 0  9996
2 38637 048.9743 164.2496 6394995 221.7358 066.0179 03.06794811061419

Suivez BREEZE-M DEB en temps réel avec AllMySat

Download on the App Store